Hourly Weather Kozyrevka

Today, 22 October, Thursday

Time Temperature Precipitation Wind Pressure Humidity
00:00 +6°C° 0 mm 2 mps 745 mmHg 93%
01:00 +7°C° 0 mm 1 mps 745 mmHg 93%
02:00 +5°C° 0 mm 0 mps 745 mmHg 91%
03:00 +6°C° 0 mm 1 mps 745 mmHg 91%
04:00 +6°C° 0 mm 1 mps 745 mmHg 91%
05:00 +5°C° 0 mm 1 mps 745 mmHg 91%
06:00 +5°C° 0 mm 2 mps 745 mmHg 89%
07:00 +6°C° 0 mm 2 mps 745 mmHg 87%
08:00 +6°C° 0 mm 2 mps 745 mmHg 84%
09:00 +7°C° 0 mm 3 mps 745 mmHg 80%
10:00 +8°C° 0 mm 3 mps 744 mmHg 76%
11:00 +8°C° 0 mm 4 mps 744 mmHg 71%
12:00 +8°C° 0 mm 4 mps 744 mmHg 74%
13:00 +8°C° 0 mm 4 mps 744 mmHg 77%
14:00 +7°C° 0 mm 4 mps 743 mmHg 81%
15:00 +7°C° 0 mm 4 mps 743 mmHg 81%
16:00 +7°C° 0 mm 4 mps 742 mmHg 81%
17:00 +7°C° 0 mm 5 mps 741 mmHg 81%
18:00 +7°C° 0 mm 5 mps 741 mmHg 81%
19:00 +7°C° 0 mm 5 mps 741 mmHg 81%
20:00 +7°C° 0 mm 5 mps 741 mmHg 81%
21:00 +7°C° 0 mm 5 mps 741 mmHg 84%
22:00 +7°C° 0 mm 5 mps 740 mmHg 87%
23:00 +7°C° 0 mm 5 mps 740 mmHg 90%

Tomorrow, 23 October, Friday

Time Temperature Precipitation Wind Pressure Humidity
00:00 +7°C° 0 mm 5 mps 741 mmHg 91%
01:00 +7°C° 0 mm 5 mps 741 mmHg 92%
02:00 +8°C° 0 mm 5 mps 741 mmHg 93%
03:00 +8°C° 0 mm 5 mps 741 mmHg 93%
04:00 +7°C° 0 mm 5 mps 741 mmHg 94%
05:00 +7°C° 0 mm 5 mps 741 mmHg 95%
06:00 +8°C° 0 mm 5 mps 741 mmHg 94%
07:00 +8°C° 0 mm 5 mps 741 mmHg 94%
08:00 +8°C° 0 mm 5 mps 742 mmHg 93%
09:00 +10°C° 0 mm 5 mps 742 mmHg 87%
10:00 +12°C° 0 mm 5 mps 741 mmHg 82%
11:00 +14°C° 0 mm 5 mps 741 mmHg 76%
12:00 +14°C° 0 mm 5 mps 741 mmHg 75%
13:00 +14°C° 0 mm 5 mps 741 mmHg 74%
14:00 +15°C° 0 mm 5 mps 740 mmHg 72%
15:00 +14°C° 0 mm 5 mps 740 mmHg 76%
16:00 +13°C° 0 mm 5 mps 739 mmHg 79%
17:00 +13°C° 0 mm 5 mps 739 mmHg 82%
18:00 +12°C° 0 mm 5 mps 739 mmHg 83%
19:00 +12°C° 0 mm 5 mps 739 mmHg 83%
20:00 +12°C° 0 mm 5 mps 739 mmHg 84%
21:00 +12°C° 0.2 mm 4 mps 739 mmHg 85%
22:00 +12°C° 0.2 mm 4 mps 739 mmHg 87%
23:00 +11°C° 0.2 mm 4 mps 739 mmHg 88%

Day after tomorrow, 24 October, Saturday

Time Temperature Precipitation Wind Pressure Humidity
00:00 +11°C° 0 mm 4 mps 739 mmHg 90%
01:00 +10°C° 0 mm 4 mps 739 mmHg 92%
02:00 +10°C° 0 mm 3 mps 739 mmHg 95%
03:00 +9°C° 0 mm 3 mps 739 mmHg 95%
04:00 +9°C° 0 mm 3 mps 739 mmHg 96%
05:00 +8°C° 0 mm 3 mps 739 mmHg 97%
06:00 +9°C° 0 mm 2 mps 740 mmHg 96%
07:00 +9°C° 0 mm 2 mps 740 mmHg 95%
08:00 +9°C° 0 mm 2 mps 740 mmHg 94%
09:00 +10°C° 0 mm 2 mps 740 mmHg 87%
10:00 +11°C° 0 mm 3 mps 741 mmHg 80%
11:00 +12°C° 0 mm 3 mps 741 mmHg 73%
12:00 +13°C° 0 mm 3 mps 741 mmHg 72%
13:00 +13°C° 0 mm 3 mps 741 mmHg 70%
14:00 +13°C° 0 mm 3 mps 740 mmHg 68%
15:00 +13°C° 0 mm 2 mps 740 mmHg 73%
16:00 +12°C° 0 mm 2 mps 740 mmHg 79%
17:00 +11°C° 0 mm 1 mps 740 mmHg 84%
18:00 +11°C° 0 mm 1 mps 740 mmHg 85%
19:00 +11°C° 0 mm 1 mps 740 mmHg 86%
20:00 +11°C° 0 mm 1 mps 740 mmHg 88%
21:00 +11°C° 0.2 mm 1 mps 740 mmHg 89%
22:00 +11°C° 0.2 mm 1 mps 740 mmHg 90%
23:00 +11°C° 0.2 mm 1 mps 740 mmHg 91%

, 25 October, Sunday

Time Temperature Precipitation Wind Pressure Humidity
00:00 +10°C° 1.6 mm 1 mps 740 mmHg 92%
01:00 +9°C° 1.6 mm 2 mps 739 mmHg 94%
02:00 +9°C° 1.6 mm 2 mps 739 mmHg 95%
03:00 +9°C° 0.3 mm 2 mps 740 mmHg 95%
04:00 +8°C° 0.3 mm 2 mps 740 mmHg 95%
05:00 +8°C° 0.3 mm 2 mps 740 mmHg 95%
06:00 +8°C° 0 mm 2 mps 740 mmHg 94%
07:00 +8°C° 0 mm 2 mps 741 mmHg 93%
08:00 +8°C° 0 mm 3 mps 741 mmHg 92%
09:00 +9°C° 0 mm 3 mps 741 mmHg 88%
10:00 +10°C° 0 mm 4 mps 742 mmHg 83%
11:00 +10°C° 0 mm 5 mps 742 mmHg 78%
12:00 +10°C° 0 mm 5 mps 742 mmHg 77%
13:00 +10°C° 0 mm 5 mps 743 mmHg 75%
14:00 +10°C° 0 mm 5 mps 743 mmHg 74%
15:00 +10°C° 0 mm 4 mps 743 mmHg 76%
16:00 +10°C° 0 mm 4 mps 744 mmHg 78%
17:00 +9°C° 0 mm 3 mps 744 mmHg 80%
18:00 +8°C° 0 mm 3 mps 745 mmHg 83%
19:00 +8°C° 0 mm 3 mps 745 mmHg 85%
20:00 +7°C° 0 mm 2 mps 746 mmHg 88%
21:00 +6°C° 0 mm 2 mps 746 mmHg 88%
22:00 +6°C° 0 mm 2 mps 747 mmHg 88%
23:00 +5°C° 0 mm 2 mps 747 mmHg 89%

25 October, Sunday

Time Temperature Precipitation Wind Pressure Humidity
00:00 +10°C° 1.6 mm 1 mps 740 mmHg 92%
01:00 +9°C° 1.6 mm 2 mps 739 mmHg 94%
02:00 +9°C° 1.6 mm 2 mps 739 mmHg 95%
03:00 +9°C° 0.3 mm 2 mps 740 mmHg 95%
04:00 +8°C° 0.3 mm 2 mps 740 mmHg 95%
05:00 +8°C° 0.3 mm 2 mps 740 mmHg 95%
06:00 +8°C° 0 mm 2 mps 740 mmHg 94%
07:00 +8°C° 0 mm 2 mps 741 mmHg 93%
08:00 +8°C° 0 mm 3 mps 741 mmHg 92%
09:00 +9°C° 0 mm 3 mps 741 mmHg 88%
10:00 +10°C° 0 mm 4 mps 742 mmHg 83%
11:00 +10°C° 0 mm 5 mps 742 mmHg 78%
12:00 +10°C° 0 mm 5 mps 742 mmHg 77%
13:00 +10°C° 0 mm 5 mps 743 mmHg 75%
14:00 +10°C° 0 mm 5 mps 743 mmHg 74%
15:00 +10°C° 0 mm 4 mps 743 mmHg 76%
16:00 +10°C° 0 mm 4 mps 744 mmHg 78%
17:00 +9°C° 0 mm 3 mps 744 mmHg 80%
18:00 +8°C° 0 mm 3 mps 745 mmHg 83%
19:00 +8°C° 0 mm 3 mps 745 mmHg 85%
20:00 +7°C° 0 mm 2 mps 746 mmHg 88%
21:00 +6°C° 0 mm 2 mps 746 mmHg 88%
22:00 +6°C° 0 mm 2 mps 747 mmHg 88%
23:00 +5°C° 0 mm 2 mps 747 mmHg 89%

26 October, Monday

Time Temperature Precipitation Wind Pressure Humidity
00:00 +5°C° 0 mm 2 mps 747 mmHg 88%
01:00 +6°C° 0 mm 1 mps 748 mmHg 88%
02:00 +6°C° 0 mm 1 mps 748 mmHg 88%
03:00 +5°C° 0 mm 1 mps 748 mmHg 88%
04:00 +5°C° 0 mm 1 mps 749 mmHg 89%
05:00 +5°C° 0 mm 1 mps 749 mmHg 89%
06:00 +5°C° 0 mm 1 mps 749 mmHg 88%
07:00 +6°C° 0 mm 1 mps 749 mmHg 86%
08:00 +6°C° 0 mm 1 mps 750 mmHg 85%
09:00 +7°C° 0 mm 1 mps 750 mmHg 79%
10:00 +8°C° 0 mm 1 mps 750 mmHg 74%
11:00 +9°C° 0 mm 2 mps 750 mmHg 68%
12:00 +9°C° 0 mm 2 mps 750 mmHg 66%
13:00 +10°C° 0 mm 2 mps 750 mmHg 65%
14:00 +10°C° 0 mm 2 mps 750 mmHg 63%
15:00 +9°C° 0 mm 2 mps 750 mmHg 68%
16:00 +8°C° 0 mm 2 mps 750 mmHg 74%
17:00 +7°C° 0 mm 2 mps 750 mmHg 79%
18:00 +6°C° 0 mm 2 mps 750 mmHg 80%
19:00 +6°C° 0 mm 2 mps 750 mmHg 82%
20:00 +4°C° 0 mm 3 mps 750 mmHg 83%
21:00 +4°C° 0 mm 3 mps 751 mmHg 84%
22:00 +4°C° 0 mm 3 mps 751 mmHg 85%
23:00 +4°C° 0 mm 3 mps 751 mmHg 85%

27 October, Tuesday

Time Temperature Precipitation Wind Pressure Humidity
00:00 +3°C° 0 mm 3 mps 751 mmHg 86%
01:00 +3°C° 0 mm 3 mps 751 mmHg 87%
02:00 +3°C° 0 mm 3 mps 750 mmHg 89%
03:00 +3°C° 0 mm 3 mps 751 mmHg 89%
04:00 +3°C° 0 mm 3 mps 751 mmHg 90%
05:00 +2°C° 0 mm 3 mps 751 mmHg 90%
06:00 +3°C° 0 mm 4 mps 751 mmHg 89%
07:00 +3°C° 0 mm 4 mps 751 mmHg 88%
08:00 +4°C° 0 mm 4 mps 751 mmHg 87%
09:00 +5°C° 0 mm 4 mps 751 mmHg 83%
10:00 +6°C° 0 mm 5 mps 751 mmHg 78%
11:00 +7°C° 0 mm 5 mps 751 mmHg 73%
12:00 +8°C° 0 mm 5 mps 751 mmHg 73%
13:00 +8°C° 0 mm 4 mps 750 mmHg 72%
14:00 +8°C° 0 mm 4 mps 750 mmHg 72%
15:00 +8°C° 0 mm 4 mps 750 mmHg 73%
16:00 +8°C° 0 mm 4 mps 750 mmHg 74%
17:00 +7°C° 0 mm 4 mps 750 mmHg 75%
18:00 +7°C° 0 mm 4 mps 750 mmHg 75%
19:00 +7°C° 0 mm 4 mps 750 mmHg 75%
20:00 +7°C° 0 mm 4 mps 750 mmHg 75%
21:00 +7°C° 0 mm 4 mps 750 mmHg 75%
22:00 +7°C° 0 mm 4 mps 749 mmHg 75%
23:00 +8°C° 0 mm 3 mps 749 mmHg 75%
Show more